Location: Poughquag
(41.6090°N, 73.6820°W)
Time: 10:33:46
(UTC-05:00)

Vanguard 1 - Pass Details

Date: 03 December 2023
Orbit: 653 x 3826 km, 34.3° (Epoch: 25 February)

Event Time Altitude Azimuth Distance (km) Brightness Sun altitude
Rises 00:38:11 0° 284° (WNW) 7,853 14.6 -67.4°
Enters shadow 00:42:22 - 280° (W) 7,192 14.3 -67.0°
Reaches altitude 10° 00:44:05 10° 278° (W) 6,924 - -66.8°
Maximum altitude 01:03:42 37° 222° (SW) 4,586 - -64.3°
Drops below altitude 10° 01:18:44 10° 162° (SSE) 5,312 - -62.2°
Sets 01:22:35 0° 153° (SSE) 5,924 - -61.6°
